Wind_Speed
24 22 21 22 19 24 23 20 17 25 20 19 16 16 12 12 11 11 11 10 9 11
26 25 23 24 25 22 23 23 23 22 26 21 19 16 16 16 17 14 15 14 13 12
26 25 26 21 25 26 21 21 21 29 28 24 23 21 20 18 19 19 15 14 15 15
27 27 26 22 26 26 24 22 25 21 22 23 23 22 21 21 19 17 21 19 18 12
26 27 27 28 23 27 28 25 23 23 24 24 24 22 22 23 23 21 17 20 18 14
28 28 28 29 27 27 27 25 23 26 24 24 26 23 23 22 22 23 19 18 18 19
30 29 29 28 30 27 29 27 27 25 29 29 26 25 24 24 24 22 20 19 20 21
30 30 28 29 30 31 30 30 28 28 27 28 26 26 25 25 23 22 23 23 22 20
24 30 30 30 29 31 29 30 30 30 28 28 28 29 29 30 28 26 24 23 22 23
16 21 27 29 30 29 31 29 29 30 31 30 30 30 31 30 28 24 23 22 21 20
17 18 22 29 31 31 30 31 31 30 32 32 33 34 31 27 29 25 25 24 22 21
12 13 16 16 30 33 32 31 31 32 32 33 34 36 37 31 26 25 25 23 23 22
26 35 15 14 23 37 35 34 31 31 32 34 32 32 35 36 30 24 22 24 27 27
23 22 18 26 28 59 44 32 33 33 32 32 34 32 36 36 35 27 22 22 23 27
Wind_Direction
205 203 211 215 218 219 216 227 218 217 216 218 223 219 226 224 215 225 226 233 255 282
205 203 207 213 213 220 223 221 221 211 215 213 219 218 219 224 226 241 227 238 229 245
207 208 211 215 206 212 224 226 220 223 216 213 216 219 220 226 230 238 243 241 253 247
206 209 212 218 210 210 214 219 223 205 204 209 216 217 218 226 228 242 240 240 252 269
205 207 209 215 214 213 216 217 221 211 216 219 221 218 219 230 233 242 236 240 249 251
208 208 212 209 213 209 210 212 211 214 211 213 219 214 223 219 229 237 239 238 241 246
211 211 212 215 209 212 209 211 215 213 207 207 210 214 218 220 228 238 242 242 242 244
211 213 216 218 212 208 208 208 211 215 213 211 210 216 220 224 227 233 242 244 247 247
221 214 217 217 221 208 211 209 208 210 215 211 212 219 221 221 224 233 236 232 238 243
252 230 228 229 221 216 210 210 210 211 211 214 214 219 225 224 219 220 226 230 239 241
233 237 242 235 231 222 213 211 211 212 213 213 215 217 226 226 218 217 222 230 232 236
258 243 244 280 253 232 221 215 214 215 213 215 216 216 220 223 220 218 222 226 229 232
286 249 272 289 279 288 231 218 212 218 217 217 221 219 221 222 220 223 227 232 234 236
309 289 304 298 271 284 251 224 222 217 215 216 220 222 224 225 221 220 224 230 233 234
Height
794 797 800 802 804 807 807 809 809 811 813 817 821 824 825 825 825 828 831 833 835 835
788 791 794 797 800 804 806 807 808 810 812 815 818 821 823 823 825 828 830 833 834 835
784 787 790 793 794 798 801 803 805 807 809 813 817 820 822 824 825 826 828 829 830 831
779 782 786 789 790 793 796 798 800 802 806 810 813 816 818 821 822 824 825 825 826 828
774 777 780 782 785 787 789 792 794 797 801 804 808 810 814 817 820 820 821 823 825 826
767 770 773 775 779 781 785 788 790 793 795 799 802 805 808 811 816 816 818 821 822 821
759 764 767 770 773 776 779 782 785 787 790 792 796 800 803 805 809 812 815 816 816 819
753 757 762 765 767 770 773 775 779 783 785 787 791 794 798 800 803 806 809 811 813 814
748 752 757 759 765 766 768 771 773 775 778 781 784 787 791 793 796 800 803 805 808 809
745 748 752 755 758 761 763 766 768 769 771 773 776 780 783 786 789 793 796 798 800 802
740 742 746 749 751 754 757 759 762 763 765 766 768 772 776 779 782 786 788 790 793 796
736 739 739 742 747 749 751 753 755 756 757 759 760 763 767 773 776 779 782 784 786 788
734 733 739 733 731 746 744 745 748 752 751 752 754 758 761 766 769 772 776 779 779 781
727 726 727 716 721 741 742 739 744 744 743 745 747 749 753 757 761 765 769 772 773 773